Location: Llanfihangel-Ystrad
(52.1833°N, 4.1667°W)
Time: 02:34:37
(UTC+00:00)

Helios 1A Rocket - Pass Details

Date: 17 February 2020
Orbit: 563 x 587 km, 98.3° (Epoch: 03 April)

Event Time Altitude Azimuth Distance (km) Brightness Sun altitude
Rises 06:02:16 0° 19° (NNE) 2,833 6.7 -13.9°
Reaches altitude 10° 06:04:32 10° 26° (NNE) 1,926 5.9 -13.6°
Maximum altitude 06:08:32 45° 99° (E) 813 4.2 -13.0°
Drops below altitude 10° 06:12:31 10° 173° (S) 1,903 5.7 -12.4°
Sets 06:14:43 0° 180° (S) 2,795 6.5 -12.0°
